This is the latest recevied weather packets stored in our database for station/object DG4MJS-10. If no packets are shown the sender has not sent any weather packets the latest 10 day(s).
| Time | Temp. | Humidity | Pressure | Rain* | Wind** | Luminosity | Snow |
|---|---|---|---|---|---|---|---|
| 1787597959 | 20.56° C | 48% | 1014.6 hPa | - | - | - | - |
| 1787597059 | 20.56° C | 49% | 1014.6 hPa | - | - | - | - |
| 1787596159 | 21.11° C | 48% | 1014.6 hPa | - | - | - | - |
| 1787595258 | 21.11° C | 47% | 1015.2 hPa | - | - | - | - |
| 1787594358 | 21.11° C | 46% | 1014.7 hPa | - | - | - | - |
| 1787593457 | 21.11° C | 47% | 1014.7 hPa | - | - | - | - |
| 1787592557 | 21.67° C | 50% | 1014.9 hPa | - | - | - | - |
| 1787591657 | 21.67° C | 50% | 1015.3 hPa | - | - | - | - |
| 1787590757 | 21.67° C | 51% | 1015.5 hPa | - | - | - | - |
| 1787589857 | 21.67° C | 52% | 1015.7 hPa | - | - | - | - |
| 1787588957 | 22.22° C | 46% | 1016 hPa | - | - | - | - |
| 1787588060 | 22.22° C | 45% | 1016 hPa | - | - | - | - |
| 1787587159 | 22.78° C | 44% | 1016.1 hPa | - | - | - | - |
| 1787586259 | 22.22° C | 45% | 1016.4 hPa | - | - | - | - |
| 1787585359 | 22.78° C | 47% | 1016.3 hPa | - | - | - | - |
| 1787584459 | 23.33° C | 43% | 1016.6 hPa | - | - | - | - |
| 1787583559 | 23.33° C | 44% | 1016.7 hPa | - | - | - | - |
| 1787582659 | 23.33° C | 41% | 1017 hPa | - | - | - | - |
| 1787581759 | 23.33° C | 41% | 1017.2 hPa | - | - | - | - |
| 1787580859 | 23.89° C | 39% | 1017.4 hPa | - | - | - | - |
| 1787579959 | 24.44° C | 40% | 1017.6 hPa | - | - | - | - |
| 1787579059 | 24.44° C | 40% | 1017.7 hPa | - | - | - | - |
| 1787578159 | 24.44° C | 40% | 1017.8 hPa | - | - | - | - |
| 1787577258 | 23.33° C | 42% | 1018.1 hPa | - | - | - | - |
| 1787576358 | 22.22° C | 45% | 1018.3 hPa | - | - | - | - |
* Rain since midnight (hover to see other rain measurements)
** Current wind speed in m/s (hover to see current wind gust speed)